This is the latest recevied weather packets stored in our database for station/object VE3VGJ. If no packets are shown the sender has not sent any weather packets the latest 10 day(s).
| Time | Temp. | Humidity | Pressure | Rain* | Wind** | Luminosity | Snow |
|---|---|---|---|---|---|---|---|
| 1777985257 | 11.67° C | 76% | 1000.4 hPa | 0 mm | - | 143 W/m² | - |
| 1777984953 | 12.22° C | 75% | 1000.2 hPa | 0 mm | - | 136 W/m² | - |
| 1777984649 | 12.78° C | 75% | 1000.2 hPa | 0 mm | - | 132 W/m² | - |
| 1777984346 | 12.78° C | 74% | 1000.1 hPa | 0 mm | - | 138 W/m² | - |
| 1777984042 | 13.33° C | 74% | 1000.2 hPa | 0 mm | - | 140 W/m² | - |
| 1777983740 | 12.78° C | 75% | 1000.1 hPa | 0 mm | - | 142 W/m² | - |
| 1777983436 | 12.78° C | 75% | 1000 hPa | 0 mm | - | 147 W/m² | - |
| 1777983133 | 12.78° C | 75% | 999.9 hPa | 0 mm | - | 140 W/m² | - |
| 1777982829 | 12.78° C | 75% | 1000.1 hPa | 0 mm | - | 127 W/m² | - |
| 1777982526 | 12.78° C | 75% | 1000.2 hPa | 0 mm | - | 111 W/m² | - |
| 1777982225 | 12.78° C | 75% | 1000 hPa | 0 mm | - | 130 W/m² | - |
| 1777981923 | 12.78° C | 75% | 1000 hPa | 0 mm | - | 100 W/m² | - |
| 1777981620 | 13.33° C | 74% | 999.9 hPa | 0 mm | - | 81 W/m² | - |
| 1777981316 | 13.33° C | 74% | 1000.1 hPa | 0 mm | - | 92 W/m² | - |
| 1777981012 | 12.78° C | 75% | 1000.2 hPa | 0 mm | - | 74 W/m² | - |
| 1777980709 | 12.78° C | 75% | 1000 hPa | 0 mm | - | 77 W/m² | - |
| 1777980405 | 12.78° C | 76% | 999.8 hPa | 0 mm | - | 81 W/m² | - |
| 1777980103 | 12.78° C | 75% | 999.9 hPa | 0 mm | - | 62 W/m² | - |
| 1777979802 | 13.33° C | 74% | 999.8 hPa | 0 mm | - | 58 W/m² | - |
| 1777979499 | 13.89° C | 73% | 999.8 hPa | 0 mm | - | 38 W/m² | - |
| 1777979195 | 13.89° C | 73% | 999.4 hPa | 0 mm | - | 18 W/m² | - |
| 1777978893 | 13.89° C | 74% | 999.4 hPa | 0 mm | - | 18 W/m² | - |
| 1777978589 | 13.33° C | 75% | 999.4 hPa | 0 mm | - | 10 W/m² | - |
| 1777978285 | 12.78° C | 76% | 999.3 hPa | 0 mm | - | 11 W/m² | - |
| 1777977982 | 12.22° C | 77% | 999.5 hPa | 0 mm | - | 11 W/m² | - |
* Rain latest hour (hover to see other rain measurements)
** Current wind speed in m/s (hover to see current wind gust speed)